Location: Dogstar Observatory
(35.3981°N, 83.1078°W)
Time: 05:38:55
(UTC-05:00)

N. Korean satellite - Visible Passes

Search period start: 01 December 2021 00:00
Search period end: 11 December 2021 00:00
Orbit: 447 x 495 km, 97.3° (Epoch: 30 November)

Date Brightness Start Highest point End Pass type
(mag) Time Alt. Az. Time Alt. Az. Time Alt. Az.
01 Dec 6.5 06:02:25 10° N 06:05:40 48° WNW 06:08:54 10° SSW visible
01 Dec 10.1 18:08:22 10° WSW 18:09:46 12° W 18:11:10 10° WNW visible
02 Dec 7.0 05:33:53 10° NNE 05:37:13 58° E 05:40:32 10° S visible
03 Dec 9.0 05:05:59 10° NE 05:08:39 21° E 05:11:18 10° SSE visible
03 Dec 8.0 06:39:36 10° NNW 06:41:38 15° WNW 06:43:40 10° WSW visible
04 Dec 6.9 06:10:11 10° N 06:13:18 36° WNW 06:16:25 10° SW visible
05 Dec 6.4 05:41:29 10° NNE 05:44:51 78° ESE 05:48:13 10° S visible
05 Dec 9.5 17:46:01 10° SSW 17:48:49 22° W 17:51:37 10° NW visible
06 Dec 8.5 05:13:21 10° NE 05:16:17 27° E 05:19:13 10° SSE visible
06 Dec 8.3 06:47:47 10° NW 06:49:11 12° WNW 06:50:34 10° W visible
07 Dec 9.9 04:46:32 10° ENE 04:47:37 11° E 04:48:41 10° ESE visible
07 Dec 7.2 06:17:54 10° NNW 06:20:51 28° WNW 06:23:47 10° SW visible
08 Dec 6.2 05:49:01 10° N 05:52:24 79° WNW 05:55:46 10° SSW visible
08 Dec 9.6 17:54:00 10° SW 17:56:24 17° W 17:58:48 10° NW visible
09 Dec 8.0 05:20:41 10° NNE 05:23:50 35° E 05:26:58 10° SSE visible
10 Dec 9.6 04:53:14 10° ENE 04:55:09 14° E 04:57:05 10° SE visible
10 Dec 7.5 06:26:08 13° NNW 06:28:18 23° WNW 06:31:00 10° SW visible
